Year,Month,Day,Hour,Minute,Value (Times are PST for temperature in C)
2017,08,23,00,00,15.10
2017,08,23,00,01,15.10
2017,08,23,00,02,15.10
2017,08,23,00,03,15.10
2017,08,23,00,04,15.10
2017,08,23,00,05,15.10
2017,08,23,00,06,15.10
2017,08,23,00,07,15.10
2017,08,23,00,08,15.10
2017,08,23,00,09,15.10
2017,08,23,00,10,15.10
2017,08,23,00,11,15.10
2017,08,23,00,12,15.10
2017,08,23,00,13,15.10
2017,08,23,00,14,15.10
2017,08,23,00,15,15.20
2017,08,23,00,16,15.20
2017,08,23,00,17,15.20
2017,08,23,00,18,15.20
2017,08,23,00,19,15.20
2017,08,23,00,20,15.20
2017,08,23,00,21,15.20
2017,08,23,00,22,15.20
2017,08,23,00,23,15.30
2017,08,23,00,24,15.30
2017,08,23,00,25,15.30
2017,08,23,00,26,15.30
2017,08,23,00,27,15.30
2017,08,23,00,28,15.30
2017,08,23,00,29,15.30
2017,08,23,00,30,15.30
2017,08,23,00,31,15.30
2017,08,23,00,32,15.30
2017,08,23,00,33,15.30
2017,08,23,00,34,15.30
2017,08,23,00,35,15.30
2017,08,23,00,36,15.30
2017,08,23,00,37,15.40
2017,08,23,00,38,15.40
2017,08,23,00,39,15.40
2017,08,23,00,40,15.40
2017,08,23,00,41,15.40
2017,08,23,00,42,15.40
2017,08,23,00,43,15.40
2017,08,23,00,44,15.40
2017,08,23,00,45,15.40
2017,08,23,00,46,15.40
2017,08,23,00,47,15.40
2017,08,23,00,48,15.40
2017,08,23,00,49,15.40
2017,08,23,00,50,15.40
2017,08,23,00,51,15.40
2017,08,23,00,52,15.30
2017,08,23,00,53,15.30
2017,08,23,00,54,15.30
2017,08,23,00,55,15.30
2017,08,23,00,56,15.30
2017,08,23,00,57,15.30
2017,08,23,00,58,15.30
2017,08,23,00,59,15.30
2017,08,23,01,00,15.30
2017,08,23,01,01,15.30
2017,08,23,01,02,15.30
2017,08,23,01,03,15.30
2017,08,23,01,04,15.30
2017,08,23,01,05,15.30
2017,08,23,01,06,15.30
2017,08,23,01,07,15.30
2017,08,23,01,08,15.30
2017,08,23,01,09,15.30
2017,08,23,01,10,15.30
2017,08,23,01,11,15.30
2017,08,23,01,12,15.30
2017,08,23,01,13,15.30
2017,08,23,01,14,15.30
2017,08,23,01,15,15.30
2017,08,23,01,16,15.30
2017,08,23,01,17,15.30
2017,08,23,01,18,15.30
2017,08,23,01,19,15.30
2017,08,23,01,20,15.30
2017,08,23,01,21,15.30
2017,08,23,01,22,15.30
2017,08,23,01,23,15.30
2017,08,23,01,24,15.30
2017,08,23,01,25,15.30
2017,08,23,01,26,15.30
2017,08,23,01,27,15.30
2017,08,23,01,28,15.30
2017,08,23,01,29,15.20
2017,08,23,01,30,15.20
2017,08,23,01,31,15.20
2017,08,23,01,32,15.20
2017,08,23,01,33,15.20
2017,08,23,01,34,15.20
2017,08,23,01,35,15.20
2017,08,23,01,36,15.30
2017,08,23,01,37,15.20
2017,08,23,01,38,15.20
2017,08,23,01,39,15.20
2017,08,23,01,40,15.20
2017,08,23,01,41,15.20
2017,08,23,01,42,15.20
2017,08,23,01,43,15.20
2017,08,23,01,44,15.20
2017,08,23,01,45,15.20
2017,08,23,01,46,15.20
2017,08,23,01,47,15.30
2017,08,23,01,48,15.30
2017,08,23,01,49,15.30
2017,08,23,01,50,15.30
2017,08,23,01,51,15.30
2017,08,23,01,52,15.30
2017,08,23,01,53,15.20
2017,08,23,01,54,15.20
2017,08,23,01,55,15.30
2017,08,23,01,56,15.30
2017,08,23,01,57,15.30
2017,08,23,01,58,15.30
2017,08,23,01,59,15.30
2017,08,23,02,00,15.30
2017,08,23,02,01,15.30
2017,08,23,02,02,15.30
2017,08,23,02,03,15.30
2017,08,23,02,04,15.30
2017,08,23,02,05,15.40
2017,08,23,02,06,15.30
2017,08,23,02,07,15.30
2017,08,23,02,08,15.30
2017,08,23,02,09,15.30
2017,08,23,02,10,15.30
2017,08,23,02,11,15.40
2017,08,23,02,12,15.40
2017,08,23,02,13,15.40
2017,08,23,02,14,15.40
2017,08,23,02,15,15.40
2017,08,23,02,16,15.40
2017,08,23,02,17,15.30
2017,08,23,02,18,15.30
2017,08,23,02,19,15.30
2017,08,23,02,20,15.30
2017,08,23,02,21,15.20
2017,08,23,02,22,15.20
2017,08,23,02,23,15.10
2017,08,23,02,24,15.10
2017,08,23,02,25,15.00
2017,08,23,02,26,15.00
2017,08,23,02,27,15.00
2017,08,23,02,28,14.90
2017,08,23,02,29,14.90
2017,08,23,02,30,14.90
2017,08,23,02,31,14.90
2017,08,23,02,32,14.90
2017,08,23,02,33,14.90
2017,08,23,02,34,14.80
2017,08,23,02,35,14.80
2017,08,23,02,36,14.90
2017,08,23,02,37,14.80
2017,08,23,02,38,14.80
2017,08,23,02,39,14.90
2017,08,23,02,40,14.90
2017,08,23,02,41,14.90
2017,08,23,02,42,14.90
2017,08,23,02,43,14.90
2017,08,23,02,44,14.90
2017,08,23,02,45,14.90
2017,08,23,02,46,15.00
2017,08,23,02,47,15.00
2017,08,23,02,48,15.00
2017,08,23,02,49,15.00
2017,08,23,02,50,15.10
2017,08,23,02,51,15.10
2017,08,23,02,52,15.10
2017,08,23,02,53,15.10
2017,08,23,02,54,15.10
2017,08,23,02,55,15.10
2017,08,23,02,56,15.10
2017,08,23,02,57,15.10
2017,08,23,02,58,15.10
2017,08,23,02,59,15.10
2017,08,23,03,00,15.10
2017,08,23,03,01,15.20
2017,08,23,03,02,15.20
2017,08,23,03,03,15.20
2017,08,23,03,04,15.20
2017,08,23,03,05,15.20
2017,08,23,03,06,15.20
2017,08,23,03,07,15.20
2017,08,23,03,08,15.20
2017,08,23,03,09,15.20
2017,08,23,03,10,15.20
2017,08,23,03,11,15.20
2017,08,23,03,12,15.20
2017,08,23,03,13,15.20
2017,08,23,03,14,15.20
2017,08,23,03,15,15.20
2017,08,23,03,16,15.20
2017,08,23,03,17,15.20
2017,08,23,03,18,15.20
2017,08,23,03,19,15.20
2017,08,23,03,20,15.10
2017,08,23,03,21,15.10
2017,08,23,03,22,15.10
2017,08,23,03,23,15.10
2017,08,23,03,24,15.10
2017,08,23,03,25,15.10
2017,08,23,03,26,15.10
2017,08,23,03,27,15.10
2017,08,23,03,28,15.10
2017,08,23,03,29,15.10
2017,08,23,03,30,15.10
2017,08,23,03,31,15.10
2017,08,23,03,32,15.10
2017,08,23,03,33,15.10
2017,08,23,03,34,15.10
2017,08,23,03,35,15.20
2017,08,23,03,36,15.20
2017,08,23,03,37,15.20
2017,08,23,03,38,15.10
2017,08,23,03,39,15.10
2017,08,23,03,40,15.10
2017,08,23,03,41,15.10
2017,08,23,03,42,15.10
2017,08,23,03,43,15.10
2017,08,23,03,44,15.10
2017,08,23,03,45,15.10
2017,08,23,03,46,15.10
2017,08,23,03,47,15.10
2017,08,23,03,48,15.10
2017,08,23,03,49,15.00
2017,08,23,03,50,15.00
2017,08,23,03,51,15.00
2017,08,23,03,52,15.00
2017,08,23,03,53,15.00
2017,08,23,03,54,15.00
2017,08,23,03,55,15.00
2017,08,23,03,56,15.00
2017,08,23,03,57,15.00
2017,08,23,03,58,15.00
2017,08,23,03,59,14.90
2017,08,23,04,00,14.90
2017,08,23,04,01,14.90
2017,08,23,04,02,14.90
2017,08,23,04,03,14.90
2017,08,23,04,04,15.00
2017,08,23,04,05,15.00
2017,08,23,04,06,15.00
2017,08,23,04,07,15.00
2017,08,23,04,08,15.00
2017,08,23,04,09,15.00
2017,08,23,04,10,15.00
2017,08,23,04,11,14.90
2017,08,23,04,12,14.90
2017,08,23,04,13,14.90
2017,08,23,04,14,14.90
2017,08,23,04,15,14.90
2017,08,23,04,16,14.90
2017,08,23,04,17,15.00
2017,08,23,04,18,15.00
2017,08,23,04,19,14.90
2017,08,23,04,20,14.90
2017,08,23,04,21,14.90
2017,08,23,04,22,14.90
2017,08,23,04,23,14.90
2017,08,23,04,24,14.80
2017,08,23,04,25,14.80
2017,08,23,04,26,14.70
2017,08,23,04,27,14.60
2017,08,23,04,28,14.50
2017,08,23,04,29,14.50
2017,08,23,04,30,14.40
2017,08,23,04,31,14.40
2017,08,23,04,32,14.40
2017,08,23,04,33,14.40
2017,08,23,04,34,14.40
2017,08,23,04,35,14.50
2017,08,23,04,36,14.50
2017,08,23,04,37,14.60
2017,08,23,04,38,14.60
2017,08,23,04,39,14.60
2017,08,23,04,40,14.70
2017,08,23,04,41,14.70
2017,08,23,04,42,14.70
2017,08,23,04,43,14.70
2017,08,23,04,44,14.80
2017,08,23,04,45,14.80
2017,08,23,04,46,14.80
2017,08,23,04,47,14.90
2017,08,23,04,48,14.90
2017,08,23,04,49,14.90
2017,08,23,04,50,14.90
2017,08,23,04,51,14.90
2017,08,23,04,52,14.90
2017,08,23,04,53,14.90
2017,08,23,04,54,14.90
2017,08,23,04,55,14.90
2017,08,23,04,56,14.80
2017,08,23,04,57,14.80
2017,08,23,04,58,14.80
2017,08,23,04,59,14.80
2017,08,23,05,00,14.80
2017,08,23,05,01,14.80
2017,08,23,05,02,14.80
2017,08,23,05,03,14.80
2017,08,23,05,04,14.80
2017,08,23,05,05,14.80
2017,08,23,05,06,14.80
2017,08,23,05,07,14.80
2017,08,23,05,08,14.70
2017,08,23,05,09,14.70
2017,08,23,05,10,14.70
2017,08,23,05,11,14.70
2017,08,23,05,12,14.70
2017,08,23,05,13,14.70
2017,08,23,05,14,14.60
2017,08,23,05,15,14.50
2017,08,23,05,16,14.40
2017,08,23,05,17,14.30
2017,08,23,05,18,14.20
2017,08,23,05,19,14.20
2017,08,23,05,20,14.10
2017,08,23,05,21,14.10
2017,08,23,05,22,14.10
2017,08,23,05,23,14.10
2017,08,23,05,24,14.10
2017,08,23,05,25,14.10
2017,08,23,05,26,14.20
2017,08,23,05,27,14.20
2017,08,23,05,28,14.20
2017,08,23,05,29,14.20
2017,08,23,05,30,14.20
2017,08,23,05,31,14.30
2017,08,23,05,32,14.30
2017,08,23,05,33,14.30
2017,08,23,05,34,14.30
2017,08,23,05,35,14.30
2017,08,23,05,36,14.30
2017,08,23,05,37,14.30
2017,08,23,05,38,14.30
2017,08,23,05,39,14.30
2017,08,23,05,40,14.30
2017,08,23,05,41,14.30
2017,08,23,05,42,14.30
2017,08,23,05,43,14.30
2017,08,23,05,44,14.30
2017,08,23,05,45,14.30
2017,08,23,05,46,14.30
2017,08,23,05,47,14.30
2017,08,23,05,48,14.30
2017,08,23,05,49,14.30
2017,08,23,05,50,14.30
2017,08,23,05,51,14.20
2017,08,23,05,52,14.20
2017,08,23,05,53,14.20
2017,08,23,05,54,14.20
2017,08,23,05,55,14.10
2017,08,23,05,56,14.10
2017,08,23,05,57,14.00
2017,08,23,05,58,14.00
2017,08,23,05,59,13.90
2017,08,23,06,00,13.90
2017,08,23,06,01,13.80
2017,08,23,06,02,13.80
2017,08,23,06,03,13.80
2017,08,23,06,04,13.80
2017,08,23,06,05,13.80
2017,08,23,06,06,13.80
2017,08,23,06,07,13.80
2017,08,23,06,08,13.80
2017,08,23,06,09,13.80
2017,08,23,06,10,13.80
2017,08,23,06,11,13.80
2017,08,23,06,12,13.80
2017,08,23,06,13,13.80
2017,08,23,06,14,13.80
2017,08,23,06,15,13.80
2017,08,23,06,16,13.80
2017,08,23,06,17,13.80
2017,08,23,06,18,13.80
2017,08,23,06,19,13.80
2017,08,23,06,20,13.80
2017,08,23,06,21,13.80
2017,08,23,06,22,13.80
2017,08,23,06,23,13.80
2017,08,23,06,24,13.80
2017,08,23,06,25,13.70
2017,08,23,06,26,13.70
2017,08,23,06,27,13.70
2017,08,23,06,28,13.70
2017,08,23,06,29,13.70
2017,08,23,06,30,13.70
2017,08,23,06,31,13.70
2017,08,23,06,32,13.70
2017,08,23,06,33,13.60
2017,08,23,06,34,13.60
2017,08,23,06,35,13.60
2017,08,23,06,36,13.60
2017,08,23,06,37,13.60
2017,08,23,06,38,13.60
2017,08,23,06,39,13.60
2017,08,23,06,40,13.60
2017,08,23,06,41,13.60
2017,08,23,06,42,13.60
2017,08,23,06,43,13.60
2017,08,23,06,44,13.60
2017,08,23,06,45,13.60
2017,08,23,06,46,13.60
2017,08,23,06,47,13.50
2017,08,23,06,48,13.50
2017,08,23,06,49,13.50
2017,08,23,06,50,13.50
2017,08,23,06,51,13.50
2017,08,23,06,52,13.50
2017,08,23,06,53,13.50
2017,08,23,06,54,13.60
2017,08,23,06,55,13.60
2017,08,23,06,56,13.60
2017,08,23,06,57,13.70
2017,08,23,06,58,13.70
2017,08,23,06,59,13.70
2017,08,23,07,00,13.70
2017,08,23,07,01,13.80
2017,08,23,07,02,13.80
2017,08,23,07,03,13.80
2017,08,23,07,04,13.80
2017,08,23,07,05,13.80
2017,08,23,07,06,13.80
2017,08,23,07,07,13.80
2017,08,23,07,08,13.80
2017,08,23,07,09,13.80
2017,08,23,07,10,13.80
2017,08,23,07,11,13.80
2017,08,23,07,12,13.80
2017,08,23,07,13,13.80
2017,08,23,07,14,13.90
2017,08,23,07,15,13.90
2017,08,23,07,16,13.90
2017,08,23,07,17,14.00
2017,08,23,07,18,14.00
2017,08,23,07,19,14.00
2017,08,23,07,20,14.10
2017,08,23,07,21,14.10
2017,08,23,07,22,14.10
2017,08,23,07,23,14.10
2017,08,23,07,24,14.10
2017,08,23,07,25,14.20
2017,08,23,07,26,14.20
2017,08,23,07,27,14.20
2017,08,23,07,28,14.20
2017,08,23,07,29,14.20
2017,08,23,07,30,14.20
2017,08,23,07,31,14.20
2017,08,23,07,32,14.20
2017,08,23,07,33,14.20
2017,08,23,07,34,14.30
2017,08,23,07,35,14.30
2017,08,23,07,36,14.30
2017,08,23,07,37,14.30
2017,08,23,07,38,14.30
2017,08,23,07,39,14.30
2017,08,23,07,40,14.30
2017,08,23,07,41,14.30
2017,08,23,07,42,14.30
2017,08,23,07,43,14.30
2017,08,23,07,44,14.30
2017,08,23,07,45,14.30
2017,08,23,07,46,14.30
2017,08,23,07,47,14.30
2017,08,23,07,48,14.30
2017,08,23,07,49,14.20
2017,08,23,07,50,14.10
2017,08,23,07,51,14.00
2017,08,23,07,52,13.90
2017,08,23,07,53,13.70
2017,08,23,07,54,13.60
2017,08,23,07,55,13.50
2017,08,23,07,56,13.40
2017,08,23,07,57,13.30
2017,08,23,07,58,13.10
2017,08,23,07,59,13.00
2017,08,23,08,00,12.90
2017,08,23,08,01,12.90
2017,08,23,08,02,12.80
2017,08,23,08,03,12.80
2017,08,23,08,04,12.80
2017,08,23,08,05,12.70
2017,08,23,08,06,12.70
2017,08,23,08,07,12.70
2017,08,23,08,08,12.70
2017,08,23,08,09,12.70
2017,08,23,08,10,12.70
2017,08,23,08,11,12.70
2017,08,23,08,12,12.70
2017,08,23,08,13,12.70
2017,08,23,08,14,12.70
2017,08,23,08,15,12.70
2017,08,23,08,16,12.60
2017,08,23,08,17,12.60
2017,08,23,08,18,12.60
2017,08,23,08,19,12.60
2017,08,23,08,20,12.60
2017,08,23,08,21,12.60
2017,08,23,08,22,12.60
2017,08,23,08,23,12.60
2017,08,23,08,24,12.60
2017,08,23,08,25,12.60
2017,08,23,08,26,12.60
2017,08,23,08,27,12.60
2017,08,23,08,28,12.70
2017,08,23,08,29,12.70
2017,08,23,08,30,12.70
2017,08,23,08,31,12.70
2017,08,23,08,32,12.70
2017,08,23,08,33,12.70
2017,08,23,08,34,12.80
2017,08,23,08,35,12.80
2017,08,23,08,36,12.80
2017,08,23,08,37,12.80
2017,08,23,08,38,12.80
2017,08,23,08,39,12.80
2017,08,23,08,40,12.80
2017,08,23,08,41,12.80
2017,08,23,08,42,12.80
2017,08,23,08,43,12.80
2017,08,23,08,44,12.70
2017,08,23,08,45,12.70
2017,08,23,08,46,12.70
2017,08,23,08,47,12.60
2017,08,23,08,48,12.60
2017,08,23,08,49,12.60
2017,08,23,08,50,12.60
2017,08,23,08,51,12.60
2017,08,23,08,52,12.60
2017,08,23,08,53,12.60
2017,08,23,08,54,12.60
2017,08,23,08,55,12.70
2017,08,23,08,56,12.70
2017,08,23,08,57,12.70
2017,08,23,08,58,12.70
2017,08,23,08,59,12.70
2017,08,23,09,00,12.80
2017,08,23,09,01,12.80
2017,08,23,09,02,12.80
2017,08,23,09,03,12.80
2017,08,23,09,04,12.90
2017,08,23,09,05,12.90
2017,08,23,09,06,12.90
2017,08,23,09,07,12.90
2017,08,23,09,08,13.00
2017,08,23,09,09,13.00
2017,08,23,09,10,13.00
2017,08,23,09,11,13.00
2017,08,23,09,12,13.10
2017,08,23,09,13,13.10
2017,08,23,09,14,13.10
2017,08,23,09,15,13.10
2017,08,23,09,16,13.10
2017,08,23,09,17,13.10
2017,08,23,09,18,13.10
2017,08,23,09,19,13.10
2017,08,23,09,20,13.10
2017,08,23,09,21,13.10
2017,08,23,09,22,13.10
2017,08,23,09,23,13.10
2017,08,23,09,24,13.10
2017,08,23,09,25,13.10
2017,08,23,09,26,13.10
2017,08,23,09,27,13.10
2017,08,23,09,28,13.10
2017,08,23,09,29,13.10
2017,08,23,09,30,13.10
2017,08,23,09,31,13.10
2017,08,23,09,32,13.20
2017,08,23,09,33,13.20
2017,08,23,09,34,13.20
2017,08,23,09,35,13.20
2017,08,23,09,36,13.20
2017,08,23,09,37,13.20
2017,08,23,09,38,13.30
2017,08,23,09,39,13.30
2017,08,23,09,40,13.30
2017,08,23,09,41,13.20
2017,08,23,09,42,13.20
2017,08,23,09,43,13.20
2017,08,23,09,44,13.20
2017,08,23,09,45,13.20
2017,08,23,09,46,13.20
2017,08,23,09,47,13.20
2017,08,23,09,48,13.20
2017,08,23,09,49,13.20
2017,08,23,09,50,13.20
2017,08,23,09,51,13.20
2017,08,23,09,52,13.20
2017,08,23,09,53,13.20
2017,08,23,09,54,13.20
2017,08,23,09,55,13.20
2017,08,23,09,56,13.20
2017,08,23,09,57,13.30
2017,08,23,09,58,13.30
2017,08,23,09,59,13.30
2017,08,23,10,00,13.30
2017,08,23,10,01,13.30
2017,08,23,10,02,13.40
2017,08,23,10,03,13.40
2017,08,23,10,04,13.50
2017,08,23,10,05,13.60
2017,08,23,10,06,13.60
2017,08,23,10,07,13.60
2017,08,23,10,08,13.60
2017,08,23,10,09,13.60
2017,08,23,10,10,13.50
2017,08,23,10,11,13.50
2017,08,23,10,12,13.50
2017,08,23,10,13,13.60
2017,08,23,10,14,13.60
2017,08,23,10,15,13.60
2017,08,23,10,16,13.70
2017,08,23,10,17,13.70
2017,08,23,10,18,13.80
2017,08,23,10,19,13.80
2017,08,23,10,20,13.90
2017,08,23,10,21,14.00
2017,08,23,10,22,14.10
2017,08,23,10,23,14.10
2017,08,23,10,24,14.20
2017,08,23,10,25,14.20
2017,08,23,10,26,14.20
2017,08,23,10,27,14.30
2017,08,23,10,28,14.30
2017,08,23,10,29,14.30
2017,08,23,10,30,14.40
2017,08,23,10,31,14.50
2017,08,23,10,32,14.50
2017,08,23,10,33,14.60
2017,08,23,10,34,14.70
2017,08,23,10,35,14.80
2017,08,23,10,36,14.90
2017,08,23,10,37,15.00
2017,08,23,10,38,15.10
2017,08,23,10,39,15.20
2017,08,23,10,40,15.30
2017,08,23,10,41,15.40
2017,08,23,10,42,15.50
2017,08,23,10,43,15.50
2017,08,23,10,44,15.50
2017,08,23,10,45,15.50
2017,08,23,10,46,15.50
2017,08,23,10,47,15.40
2017,08,23,10,48,15.40
2017,08,23,10,49,15.40
2017,08,23,10,50,15.40
2017,08,23,10,51,15.40
2017,08,23,10,52,15.40
2017,08,23,10,53,15.40
2017,08,23,10,54,15.40
2017,08,23,10,55,15.50
2017,08,23,10,56,15.60
2017,08,23,10,57,15.70
2017,08,23,10,58,15.80
2017,08,23,10,59,15.80
2017,08,23,11,00,15.90
2017,08,23,11,01,15.90
2017,08,23,11,02,16.00
2017,08,23,11,03,16.00
2017,08,23,11,04,16.10
2017,08,23,11,05,16.10
2017,08,23,11,06,16.10
2017,08,23,11,07,16.20
2017,08,23,11,08,16.20
2017,08,23,11,09,16.30
2017,08,23,11,10,16.30
2017,08,23,11,11,16.30
2017,08,23,11,12,16.40
2017,08,23,11,13,16.50
2017,08,23,11,14,16.60
2017,08,23,11,15,16.70
2017,08,23,11,16,16.70
2017,08,23,11,17,16.80
2017,08,23,11,18,17.00
2017,08,23,11,19,17.00
2017,08,23,11,20,17.10
2017,08,23,11,21,17.10
2017,08,23,11,22,17.00
2017,08,23,11,23,16.90
2017,08,23,11,24,17.00
2017,08,23,11,25,17.00
2017,08,23,11,26,17.00
2017,08,23,11,27,17.10
2017,08,23,11,28,17.10
2017,08,23,11,29,17.20
2017,08,23,11,30,17.30
2017,08,23,11,31,17.50
2017,08,23,11,32,17.60
2017,08,23,11,33,17.70
2017,08,23,11,34,17.80
2017,08,23,11,35,17.90
2017,08,23,11,36,18.00
2017,08,23,11,37,18.10
2017,08,23,11,38,18.10
2017,08,23,11,39,18.00
2017,08,23,11,40,17.90
2017,08,23,11,41,17.80
2017,08,23,11,42,17.60
2017,08,23,11,43,17.50
2017,08,23,11,44,17.30
2017,08,23,11,45,17.20
2017,08,23,11,46,17.10
2017,08,23,11,47,17.00
2017,08,23,11,48,16.90
2017,08,23,11,49,16.80
2017,08,23,11,50,16.70
2017,08,23,11,51,16.70
2017,08,23,11,52,16.70
2017,08,23,11,53,16.70
2017,08,23,11,54,16.80
2017,08,23,11,55,16.80
2017,08,23,11,56,16.90
2017,08,23,11,57,16.90
2017,08,23,11,58,16.90
2017,08,23,11,59,16.80
2017,08,23,12,00,16.80
2017,08,23,12,01,16.70
2017,08,23,12,02,16.70
2017,08,23,12,03,16.70
2017,08,23,12,04,16.80
2017,08,23,12,05,16.80
2017,08,23,12,06,16.90
2017,08,23,12,07,16.90
2017,08,23,12,08,16.90
2017,08,23,12,09,16.90
2017,08,23,12,10,17.00
2017,08,23,12,11,17.00
2017,08,23,12,12,17.10
2017,08,23,12,13,17.10
2017,08,23,12,14,17.10
2017,08,23,12,15,17.10
2017,08,23,12,16,17.10
2017,08,23,12,17,17.00
2017,08,23,12,18,17.00
2017,08,23,12,19,16.80
2017,08,23,12,20,16.80
2017,08,23,12,21,16.60
2017,08,23,12,22,16.40
2017,08,23,12,23,16.20
2017,08,23,12,24,16.10
2017,08,23,12,25,16.00
2017,08,23,12,26,16.00
2017,08,23,12,27,16.10
2017,08,23,12,28,16.10
2017,08,23,12,29,16.10
2017,08,23,12,30,16.20
2017,08,23,12,31,16.20
2017,08,23,12,32,16.30
2017,08,23,12,33,16.40
2017,08,23,12,34,16.40
2017,08,23,12,35,16.40
2017,08,23,12,36,16.30
2017,08,23,12,37,16.20
2017,08,23,12,38,16.10
2017,08,23,12,39,16.00
2017,08,23,12,40,16.00
2017,08,23,12,41,15.90
2017,08,23,12,42,15.80
2017,08,23,12,43,15.60
2017,08,23,12,44,15.50
2017,08,23,12,45,15.40
2017,08,23,12,46,15.30
2017,08,23,12,47,15.30
2017,08,23,12,48,15.40
2017,08,23,12,49,15.40
2017,08,23,12,50,15.40
2017,08,23,12,51,15.40
2017,08,23,12,52,15.40
2017,08,23,12,53,15.40
2017,08,23,12,54,15.40
2017,08,23,12,55,15.50
2017,08,23,12,56,15.50
2017,08,23,12,57,15.50
2017,08,23,12,58,15.50
2017,08,23,12,59,15.50
2017,08,23,13,00,15.40
2017,08,23,13,01,15.50
2017,08,23,13,02,15.60
2017,08,23,13,03,15.60
2017,08,23,13,04,15.60
2017,08,23,13,05,15.70
2017,08,23,13,06,15.70
2017,08,23,13,07,15.80
2017,08,23,13,08,15.90
2017,08,23,13,09,16.00
2017,08,23,13,10,16.10
2017,08,23,13,11,16.20
2017,08,23,13,12,16.30
2017,08,23,13,13,16.40
2017,08,23,13,14,16.50
2017,08,23,13,15,16.60
2017,08,23,13,16,16.60
2017,08,23,13,17,16.70
2017,08,23,13,18,16.70
2017,08,23,13,19,16.80
2017,08,23,13,20,16.90
2017,08,23,13,21,17.00
2017,08,23,13,22,17.20
2017,08,23,13,23,17.30
2017,08,23,13,24,17.60
2017,08,23,13,25,17.80
2017,08,23,13,26,18.00
2017,08,23,13,27,18.20
2017,08,23,13,28,18.30
2017,08,23,13,29,18.50
2017,08,23,13,30,18.60
2017,08,23,13,31,18.70
2017,08,23,13,32,18.90
2017,08,23,13,33,19.00
2017,08,23,13,34,19.10
2017,08,23,13,35,19.10
2017,08,23,13,36,19.20
2017,08,23,13,37,19.20
2017,08,23,13,38,19.30
2017,08,23,13,39,19.30
2017,08,23,13,40,19.40
2017,08,23,13,41,19.40
2017,08,23,13,42,19.40
2017,08,23,13,43,19.40
2017,08,23,13,44,19.40
2017,08,23,13,45,19.40
2017,08,23,13,46,19.40
2017,08,23,13,47,19.40
2017,08,23,13,48,19.40
2017,08,23,13,49,19.50
2017,08,23,13,50,19.50
2017,08,23,13,51,19.50
2017,08,23,13,52,19.60
2017,08,23,13,53,19.60
2017,08,23,13,54,19.70
2017,08,23,13,55,19.80
2017,08,23,13,56,19.80
2017,08,23,13,57,19.90
2017,08,23,13,58,19.90
2017,08,23,13,59,20.00
2017,08,23,14,00,20.10
2017,08,23,14,01,20.20
2017,08,23,14,02,20.30
2017,08,23,14,03,20.40
2017,08,23,14,04,20.50
2017,08,23,14,05,20.60
2017,08,23,14,06,20.70
2017,08,23,14,07,20.80
2017,08,23,14,08,21.00
2017,08,23,14,09,21.00
2017,08,23,14,10,21.10
2017,08,23,14,11,21.20
2017,08,23,14,12,21.30
2017,08,23,14,13,21.40
2017,08,23,14,14,21.50
2017,08,23,14,15,21.50
2017,08,23,14,16,21.60
2017,08,23,14,17,21.60
2017,08,23,14,18,21.50
2017,08,23,14,19,21.50
2017,08,23,14,20,21.50
2017,08,23,14,21,21.50
2017,08,23,14,22,21.50
2017,08,23,14,23,21.50
2017,08,23,14,24,21.40
2017,08,23,14,25,21.40
2017,08,23,14,26,21.40
2017,08,23,14,27,21.40
2017,08,23,14,28,21.40
2017,08,23,14,29,21.40
2017,08,23,14,30,21.40
2017,08,23,14,31,21.40
2017,08,23,14,32,21.40
2017,08,23,14,33,21.50
2017,08,23,14,34,21.50
2017,08,23,14,35,21.60
2017,08,23,14,36,21.60
2017,08,23,14,37,21.60
2017,08,23,14,38,21.70
2017,08,23,14,39,21.70
2017,08,23,14,40,21.80
2017,08,23,14,41,21.80
2017,08,23,14,42,21.90
2017,08,23,14,43,22.00
2017,08,23,14,44,22.00
2017,08,23,14,45,22.10
2017,08,23,14,46,22.10
2017,08,23,14,47,22.20
2017,08,23,14,48,22.20
2017,08,23,14,49,22.30
2017,08,23,14,50,22.30
2017,08,23,14,51,22.30
2017,08,23,14,52,22.30
2017,08,23,14,53,22.30
2017,08,23,14,54,22.30
2017,08,23,14,55,22.30
2017,08,23,14,56,22.30
2017,08,23,14,57,22.30
2017,08,23,14,58,22.30
2017,08,23,14,59,22.30
2017,08,23,15,00,22.30
2017,08,23,15,01,22.40
2017,08,23,15,02,22.50
2017,08,23,15,03,22.50
2017,08,23,15,04,22.50
2017,08,23,15,05,22.50
2017,08,23,15,06,22.40
2017,08,23,15,07,22.40
2017,08,23,15,08,22.40
2017,08,23,15,09,22.30
2017,08,23,15,10,22.40
2017,08,23,15,11,22.40
2017,08,23,15,12,22.50
2017,08,23,15,13,22.60
2017,08,23,15,14,22.50
2017,08,23,15,15,22.50
2017,08,23,15,16,22.40
2017,08,23,15,17,22.50
2017,08,23,15,18,22.50
2017,08,23,15,19,22.60
2017,08,23,15,20,22.60
2017,08,23,15,21,22.60
2017,08,23,15,22,22.60
2017,08,23,15,23,22.60
2017,08,23,15,24,22.60
2017,08,23,15,25,22.60
2017,08,23,15,26,22.60
2017,08,23,15,27,22.50
2017,08,23,15,28,22.50
2017,08,23,15,29,22.40
2017,08,23,15,30,22.50
2017,08,23,15,31,22.60
2017,08,23,15,32,22.60
2017,08,23,15,33,22.70
2017,08,23,15,34,22.70
2017,08,23,15,35,22.60
2017,08,23,15,36,22.60
2017,08,23,15,37,22.50
2017,08,23,15,38,22.50
2017,08,23,15,39,22.50
2017,08,23,15,40,22.50
2017,08,23,15,41,22.50
2017,08,23,15,42,22.50
2017,08,23,15,43,22.50
2017,08,23,15,44,22.50
2017,08,23,15,45,22.60
2017,08,23,15,46,22.60
2017,08,23,15,47,22.60
2017,08,23,15,48,22.60
2017,08,23,15,49,22.50
2017,08,23,15,50,22.40
2017,08,23,15,51,22.50
2017,08,23,15,52,22.50
2017,08,23,15,53,22.50
2017,08,23,15,54,22.40
2017,08,23,15,55,22.30
2017,08,23,15,56,22.30
2017,08,23,15,57,22.20
2017,08,23,15,58,22.10
2017,08,23,15,59,22.10
2017,08,23,16,00,22.10
2017,08,23,16,01,22.10
2017,08,23,16,02,22.10
2017,08,23,16,03,22.10
2017,08,23,16,04,22.10
2017,08,23,16,05,22.10
2017,08,23,16,06,22.10
2017,08,23,16,07,22.20
2017,08,23,16,08,22.20
2017,08,23,16,09,22.20
2017,08,23,16,10,22.20
2017,08,23,16,11,22.20
2017,08,23,16,12,22.20
2017,08,23,16,13,22.20
2017,08,23,16,14,22.30
2017,08,23,16,15,22.30
2017,08,23,16,16,22.30
2017,08,23,16,17,22.40
2017,08,23,16,18,22.30
2017,08,23,16,19,22.30
2017,08,23,16,20,22.20
2017,08,23,16,21,22.20
2017,08,23,16,22,22.10
2017,08,23,16,23,22.10
2017,08,23,16,24,22.10
2017,08,23,16,25,22.10
2017,08,23,16,26,22.20
2017,08,23,16,27,22.20
2017,08,23,16,28,22.10
2017,08,23,16,29,22.10
2017,08,23,16,30,22.10
2017,08,23,16,31,22.10
2017,08,23,16,32,22.00
2017,08,23,16,33,22.00
2017,08,23,16,34,21.90
2017,08,23,16,35,21.90
2017,08,23,16,36,21.90
2017,08,23,16,37,21.90
2017,08,23,16,38,21.90
2017,08,23,16,39,21.90
2017,08,23,16,40,21.90
2017,08,23,16,41,21.90
2017,08,23,16,42,21.90
2017,08,23,16,43,22.00
2017,08,23,16,44,22.00
2017,08,23,16,45,22.00
2017,08,23,16,46,22.00
2017,08,23,16,47,22.00
2017,08,23,16,48,22.00
2017,08,23,16,49,22.00
2017,08,23,16,50,22.00
2017,08,23,16,51,22.00
2017,08,23,16,52,22.00
2017,08,23,16,53,21.90
2017,08,23,16,54,21.90
2017,08,23,16,55,21.90
2017,08,23,16,56,21.90
2017,08,23,16,57,21.90
2017,08,23,16,58,21.90
2017,08,23,16,59,21.90
2017,08,23,17,00,21.90
2017,08,23,17,01,21.90
2017,08,23,17,02,22.00
2017,08,23,17,03,22.00
2017,08,23,17,04,22.10
2017,08,23,17,05,22.10
2017,08,23,17,06,22.10
2017,08,23,17,07,22.10
2017,08,23,17,08,22.10
2017,08,23,17,09,22.10
2017,08,23,17,10,22.10
2017,08,23,17,11,22.00
2017,08,23,17,12,21.90
2017,08,23,17,13,21.90
2017,08,23,17,14,21.80
2017,08,23,17,15,21.70
2017,08,23,17,16,21.60
2017,08,23,17,17,21.60
2017,08,23,17,18,21.50
2017,08,23,17,19,21.50